User: anonymous   Login
Location: Unspecified
(0.0000°N, 0.0000°E)
Time: 08:19:55
(UTC+01:00)
Language:

Cosmos 1626 Rocket - Orbit

View from above orbital plane
View from above orbital plane
View from above satellite
View from above satellite

Ground track
Ground track

The orbit data is extracted from the following two-line orbital elements,

1 15495U 85009B   17328.87932390  .00000108  00000-0  10119-4 0  9993
2 15495  82.5265  36.9567 0020763 156.1370 204.0813 14.83792120773799
Epoch (UTC): 24 November 2017 21:06:13
Eccentricity: 0.0020763
inclination: 82.5265°
perigee height: 603 km
apogee height: 632 km
right ascension of ascending node: 36.9567°
argument of perigee: 156.1370°
revolutions per day: 14.83792120
mean anomaly at epoch: 204.0813°
orbit number at epoch: 77379

The dashed part of the orbit path shows where the satellite is in the earth's shadow,  

DLR